| time (UTC) | temp F | wind direction | speed knots | gust knots | rain 1hr in | rain 24hr in | rain mn in | humidity % | barometer mb |
| 20260505203120 | 35 | 202 | 0.0 | 0.9 | 0.00 | 0.00 | 0.00 | 68 | 1012.0 |
| 20260505201603 | 35 | 202 | 0.0 | 0.0 | 0.00 | 0.00 | 0.00 | 69 | 1012.1 |
| 20260505200058 | 36 | 201 | 0.0 | 0.0 | 0.00 | 0.00 | 0.00 | 70 | 1012.0 |
| 20260505194555 | 37 | 201 | 0.0 | 0.0 | 0.00 | 0.00 | 0.00 | 70 | 1011.9 |
| 20260505193053 | 38 | 201 | 0.0 | 0.0 | 0.00 | 0.00 | 0.00 | 70 | 1011.8 |
| 20260505191603 | 40 | 201 | 0.0 | 0.0 | 0.00 | 0.00 | 0.00 | 67 | 1011.8 |
| 20260505190051 | 44 | 201 | 0.0 | 0.0 | 0.00 | 0.00 | 0.00 | 61 | 1011.5 |
| 20260505184550 | 46 | 187 | 0.0 | 1.7 | 0.00 | 0.00 | 0.00 | 56 | 1011.4 |
| 20260505183049 | 47 | 173 | 0.0 | 5.2 | 0.00 | 0.00 | 0.00 | 53 | 1011.3 |
| 20260505181549 | 49 | 160 | 2.6 | 7.0 | 0.00 | 0.00 | 0.00 | 48 | 1011.3 |
| 20260505180050 | 49 | 187 | 1.7 | 7.0 | 0.00 | 0.00 | 0.00 | 46 | 1011.3 |
| 20260505174546 | 49 | 160 | 6.1 | 9.6 | 0.00 | 0.00 | 0.00 | 45 | 1011.1 |
| 20260505173043 | 50 | 200 | 5.2 | 9.6 | 0.00 | 0.00 | 0.00 | 43 | 1011.1 |
| 20260505171545 | 51 | 189 | 2.6 | 10.4 | 0.00 | 0.00 | 0.00 | 42 | 1011.0 |
| 20260505164542 | 52 | 212 | 5.2 | 9.6 | 0.00 | 0.00 | 0.00 | 38 | 1010.9 |
| 20260505163041 | 52 | 174 | 5.2 | 13.0 | 0.00 | 0.00 | 0.00 | 38 | 1010.9 |
| 20260505161538 | 52 | 215 | 7.8 | 12.2 | 0.00 | 0.00 | 0.00 | 37 | 1010.9 |
| 20260505153036 | 53 | 233 | 0.9 | 11.3 | 0.00 | 0.00 | 0.00 | 29 | 1010.8 |
| 20260505151545 | 52 | 195 | 7.0 | 13.0 | 0.00 | 0.00 | 0.00 | 31 | 1010.9 |
| 20260505124524 | 52 | 151 | 7.0 | 12.2 | 0.00 | 0.00 | 0.00 | 34 | 1010.9 |
| 20260505123022 | 51 | 177 | 6.1 | 14.8 | 0.00 | 0.00 | 0.00 | 34 | 1011.0 |
| 20260505121521 | 52 | 224 | 4.3 | 13.9 | 0.00 | 0.00 | 0.00 | 35 | 1011.0 |
| 20260505120020 | 52 | 217 | 3.5 | 13.0 | 0.00 | 0.00 | 0.00 | 35 | 1010.9 |
| 20260505114520 | 51 | 205 | 6.1 | 13.9 | 0.00 | 0.00 | 0.00 | 32 | 1010.9 |
| 20260505113020 | 51 | 168 | 7.8 | 14.8 | 0.00 | 0.00 | 0.00 | 35 | 1010.9 |
| 20260505111515 | 50 | 257 | 4.3 | 11.3 | 0.00 | 0.00 | 0.00 | 36 | 1010.8 |
| 20260505101513 | 51 | 254 | 2.6 | 13.0 | 0.00 | 0.00 | 0.00 | 39 | 1010.8 |
| 20260505100009 | 50 | 239 | 6.1 | 13.9 | 0.00 | 0.00 | 0.00 | 34 | 1010.7 |
| 20260505094507 | 50 | 241 | 6.1 | 13.9 | 0.00 | 0.00 | 0.00 | 33 | 1010.7 |
| 20260505093105 | 50 | 140 | 4.3 | 9.6 | 0.00 | 0.00 | 0.00 | 38 | 1010.6 |
| 20260505091503 | 50 | 174 | 3.5 | 10.4 | 0.00 | 0.00 | 0.00 | 38 | 1010.5 |
| 20260505090001 | 49 | 216 | 4.3 | 10.4 | 0.00 | 0.00 | 0.00 | 36 | 1010.4 |
| 20260505084600 | 49 | 309 | 5.2 | 13.9 | 0.00 | 0.00 | 0.00 | 38 | 1010.3 |
| 20260505083103 | 49 | 238 | 4.3 | 9.6 | 0.00 | 0.00 | 0.00 | 38 | 1010.2 |
| 20260505081602 | 49 | 45 | 0.9 | 7.8 | 0.00 | 0.00 | 0.00 | 42 | 1010.1 |
| 20260505080056 | 49 | 164 | 0.0 | 5.2 | 0.00 | 0.00 | 0.00 | 40 | 1010.1 |
| 20260505074555 | 48 | 205 | 2.6 | 7.0 | 0.00 | 0.00 | 0.00 | 43 | 1010.1 |
| 20260505073056 | 47 | 222 | 1.7 | 7.8 | 0.00 | 0.00 | 0.00 | 42 | 1010.1 |
| 20260505071553 | 46 | 214 | 1.7 | 11.3 | 0.00 | 0.00 | 0.00 | 46 | 1010.2 |
| 20260505070050 | 46 | 206 | 0.9 | 6.1 | 0.00 | 0.00 | 0.00 | 47 | 1010.1 |
| 20260505064549 | 46 | 217 | 0.9 | 7.0 | 0.00 | 0.00 | 0.00 | 47 | 1010.0 |
| 20260505063048 | 45 | 218 | 1.7 | 8.7 | 0.00 | 0.00 | 0.00 | 49 | 1010.0 |
| 20260505061549 | 45 | 308 | 1.7 | 7.0 | 0.00 | 0.00 | 0.00 | 51 | 1010.0 |
| 20260505060048 | 44 | 285 | 3.5 | 7.8 | 0.00 | 0.00 | 0.00 | 51 | 1010.1 |
| 20260505054546 | 44 | 238 | 0.9 | 6.1 | 0.00 | 0.00 | 0.00 | 55 | 1010.0 |
| 20260505053048 | 43 | 186 | 0.0 | 5.2 | 0.00 | 0.00 | 0.00 | 59 | 1009.8 |
| 20260505051543 | 41 | 163 | 1.7 | 3.5 | 0.00 | 0.00 | 0.00 | 62 | 1009.7 |
| 20260505041538 | 33 | 171 | 0.0 | 0.0 | 0.00 | 0.00 | 0.00 | 46 | 1009.3 |
| 20260505040035 | 33 | 171 | 0.0 | 0.0 | 0.00 | 0.00 | 0.00 | 52 | 1009.3 |
| 20260505034534 | 33 | 171 | 0.0 | 0.0 | 0.00 | 0.00 | 0.00 | 63 | 1009.1 |
| 20260505033039 | 34 | 171 | 0.0 | 0.0 | 0.00 | 0.00 | 0.00 | 69 | 1009.0 |
| 20260505031524 | 35 | 171 | 0.0 | 0.0 | 0.00 | 0.00 | 0.00 | 71 | 1008.9 |
| 20260505030026 | 36 | 171 | 0.0 | 0.0 | 0.00 | 0.00 | 0.00 | 72 | 1008.7 |
| 20260505024517 | 37 | 171 | 0.0 | 0.0 | 0.00 | 0.00 | 0.00 | 72 | 1008.6 |
| 20260505023016 | 38 | 269 | 0.0 | 2.6 | 0.00 | 0.00 | 0.00 | 71 | 1008.6 |
| 20260505021512 | 39 | 256 | 0.0 | 2.6 | 0.00 | 0.00 | 0.00 | 72 | 1008.6 |
| 20260505020008 | 41 | 288 | 0.0 | 0.9 | 0.00 | 0.00 | 0.00 | 71 | 1008.4 |
| 20260505014509 | 42 | 207 | 0.0 | 0.9 | 0.00 | 0.00 | 0.00 | 69 | 1008.4 |
| 20260505013002 | 43 | 217 | 0.0 | 3.5 | 0.00 | 0.00 | 0.00 | 68 | 1008.3 |
| 20260505011601 | 44 | 208 | 0.0 | 3.5 | 0.00 | 0.00 | 0.00 | 69 | 1008.2 |
| 20260505010101 | 45 | 229 | 0.9 | 4.3 | 0.00 | 0.00 | 0.00 | 70 | 1008.0 |
| 20260505004558 | 45 | 175 | 1.7 | 6.1 | 0.00 | 0.00 | 0.00 | 70 | 1008.0 |
| 20260505003050 | 46 | 165 | 1.7 | 5.2 | 0.00 | 0.00 | 0.00 | 69 | 1007.9 |
| 20260505001546 | 47 | 200 | 4.3 | 8.7 | 0.00 | 0.00 | 0.00 | 68 | 1007.7 |
| 20260505000046 | 47 | 236 | 5.2 | 10.4 | 0.00 | 0.00 | 0.00 | 63 | 1007.5 |
| 20260504234603 | 47 | 163 | 3.5 | 12.2 | 0.00 | 0.00 | 0.00 | 63 | 1007.5 |
| 20260504233039 | 48 | 155 | 5.2 | 13.0 | 0.00 | 0.00 | 0.00 | 64 | 1007.3 |
| 20260504231549 | 48 | 167 | 7.8 | 13.9 | 0.00 | 0.00 | 0.00 | 65 | 1007.3 |
| 20260504230034 | 48 | 208 | 7.0 | 12.2 | 0.00 | 0.00 | 0.00 | 63 | 1007.2 |
| 20260504224531 | 48 | 219 | 7.0 | 13.0 | 0.00 | 0.00 | 0.00 | 61 | 1007.1 |
| 20260504223027 | 48 | 194 | 4.3 | 9.6 | 0.00 | 0.00 | 0.00 | 61 | 1007.2 |
| 20260504221525 | 48 | 155 | 4.3 | 10.4 | 0.00 | 0.00 | 0.00 | 59 | 1007.0 |
| 20260504220022 | 49 | 141 | 3.5 | 10.4 | 0.00 | 0.00 | 0.00 | 60 | 1006.9 |
| 20260504214519 | 49 | 191 | 5.2 | 11.3 | 0.00 | 0.00 | 0.00 | 61 | 1007.0 |
| 20260504213012 | 49 | 180 | 5.2 | 13.0 | 0.00 | 0.00 | 0.00 | 64 | 1007.0 |
| 20260504211508 | 49 | 221 | 3.5 | 7.8 | 0.00 | 0.00 | 0.00 | 60 | 1006.9 |
| 20260504210003 | 48 | 203 | 3.5 | 8.7 | 0.00 | 0.00 | 0.00 | 57 | 1007.0 |
| 20260504204638 | 48 | 158 | 1.7 | 5.2 | 0.00 | 0.00 | 0.00 | 49 | 1007.0 |